CW3330 Buedelsdorf DE current weather conditions

sailwx.info

Wind from 191

Air temperature 22.2° C
Dewpoint 17.4° C

Last reported at 2019-Aug-26 08:10 UTC.
Time now 2019-Aug-26 09:01 UTC

Location: N 54°19' E 009°40'.
View on Google Maps.

See reports from other nearby stations

  
Tides and Currents Weather Stations Pressure Air Temp Water Temp Dewpoint Dewpoint Depression Visibility Wind Speed Wind Dir Waves Ship Positions
date/time (UTC)wind fromknots sea level pressurealtimeterstation pressurevisibilityair tempwater tempwave heightnotes
2019-Aug-26 08:10 191 22.2
2019-Aug-26 08:05 156 0 gusting 4 22.2
2019-Aug-26 08:00 179 1 gusting 5 22.2
2019-Aug-26 07:55 175 2 gusting 6 22.2
2019-Aug-26 07:50 221 1 gusting 5 22.2
2019-Aug-26 07:45 163 2 gusting 6 21.7
2019-Aug-26 07:40 207 1 gusting 5 21.7
2019-Aug-26 07:35 178 2 gusting 6 21.7
2019-Aug-26 07:30 148 1 gusting 6 21.7
2019-Aug-26 07:25 196 1 gusting 5 21.7
2019-Aug-26 07:20 175 0 gusting 5 21.7
2019-Aug-26 07:15 171 2 gusting 6 21.1
2019-Aug-26 07:10 210 0 gusting 6 21.1
2019-Aug-26 07:05 189 1 gusting 4 21.1
2019-Aug-26 07:00 169 20.6
2019-Aug-26 06:55 152 20.6
2019-Aug-26 06:50 160 20.0
2019-Aug-26 06:45 064 20.0
2019-Aug-26 06:40 064 19.4
2019-Aug-26 06:35 064 19.4
2019-Aug-26 06:30 064 18.9
2019-Aug-26 06:25 064 18.9
2019-Aug-26 06:20 064 18.9
2019-Aug-26 06:15 053 18.9
2019-Aug-26 06:10 053 18.3
2019-Aug-26 06:05 053 18.3
2019-Aug-26 06:00 053 17.8
2019-Aug-26 05:55 053 17.8
2019-Aug-26 05:50 053 17.2
2019-Aug-26 05:45 053 17.2
2019-Aug-26 05:40 053 17.2
2019-Aug-26 05:35 053 17.2
2019-Aug-26 05:30 053 17.2
2019-Aug-26 05:25 053 16.7
2019-Aug-26 05:20 053 16.7
2019-Aug-26 05:15 053 16.7
2019-Aug-26 05:10 053 16.7
2019-Aug-26 05:05 053 16.7
2019-Aug-26 05:00 053 16.1
2019-Aug-26 04:55 053 16.1
2019-Aug-26 04:50 053 16.1
2019-Aug-26 04:45 053 16.1
2019-Aug-26 04:40 053 16.1
2019-Aug-26 04:35 053 16.1
2019-Aug-26 04:30 053 16.1
2019-Aug-26 04:25 053 16.1
2019-Aug-26 04:20 053 16.1
2019-Aug-26 04:15 053 16.1
2019-Aug-26 04:10 053 16.1
2019-Aug-26 04:05 053 16.1
2019-Aug-26 04:00 053 16.1
2019-Aug-26 03:55 053 16.1
2019-Aug-26 03:50 053 16.1
2019-Aug-26 03:45 053 16.1
2019-Aug-26 03:40 053 16.1
2019-Aug-26 03:35 053 16.1
2019-Aug-26 03:30 053 16.1
2019-Aug-26 03:25 053 16.1
2019-Aug-26 03:20 053 16.1
2019-Aug-26 03:15 053 16.7
2019-Aug-26 03:10 053 16.7
2019-Aug-26 03:05 053 16.7
2019-Aug-26 03:00 053 16.7
2019-Aug-26 02:55 053 16.7
2019-Aug-26 02:50 053 16.7
2019-Aug-26 02:45 053 16.7
2019-Aug-26 02:40 053 16.7
2019-Aug-26 02:35 053 16.7
2019-Aug-26 02:30 053 16.7
2019-Aug-26 02:25 053 16.7
2019-Aug-26 02:20 053 16.7
2019-Aug-26 02:15 053 16.7
2019-Aug-26 02:10 053 17.2
2019-Aug-26 02:05 053 17.2
2019-Aug-26 02:00 053 17.2
2019-Aug-26 01:55 053 17.2
2019-Aug-26 01:50 053 17.2
2019-Aug-26 01:45 053 17.2
2019-Aug-26 01:40 053 17.2
2019-Aug-26 01:35 053 17.2
2019-Aug-26 01:30 053 17.2
2019-Aug-26 01:25 053 17.2
2019-Aug-26 01:20 053 17.8
2019-Aug-26 01:15 053 17.8
2019-Aug-26 01:10 053 17.8
2019-Aug-26 01:05 053 17.8
2019-Aug-26 01:00 053 17.8
2019-Aug-26 00:55 053 0 gusting 1 17.8
2019-Aug-26 00:50 050 17.8
2019-Aug-26 00:45 055 0 gusting 1 17.8
2019-Aug-26 00:40 057 17.8
2019-Aug-26 00:35 057 1 gusting 4 17.8
2019-Aug-26 00:30 062 17.8
2019-Aug-26 00:25 062 17.8
2019-Aug-26 00:20 062 18.3
2019-Aug-26 00:15 062 18.3
2019-Aug-26 00:10 062 18.3
2019-Aug-26 00:05 062 18.3
2019-Aug-26 00:00 062 18.3
2019-Aug-25 23:55 062 18.3
2019-Aug-25 23:50 062 17.8
2019-Aug-25 23:45 062 18.3
2019-Aug-25 23:40 062 18.3
2019-Aug-25 23:35 062 1 gusting 4 18.3
2019-Aug-25 23:30 062 1 gusting 5 18.3
2019-Aug-25 23:25 065 0 gusting 2 18.3
2019-Aug-25 23:20 059 0 gusting 2 18.3
2019-Aug-25 23:15 059 18.3
2019-Aug-25 23:10 059 18.3
2019-Aug-25 23:05 059 0 gusting 4 18.3
2019-Aug-25 22:55 059 0 gusting 4 18.3
2019-Aug-25 22:50 053 0 gusting 4 18.3
2019-Aug-25 22:45 050 1 gusting 5 18.9
2019-Aug-25 22:40 050 18.9
2019-Aug-25 22:35 050 1 gusting 4 18.9
2019-Aug-25 22:30 059 1 gusting 4 18.9
2019-Aug-25 22:25 046 2 gusting 5 18.9
2019-Aug-25 22:20 044 1 gusting 5 18.9
2019-Aug-25 22:15 053 1 gusting 5 18.9
2019-Aug-25 22:10 057 1 gusting 4 18.9
2019-Aug-25 22:05 066 0 gusting 2 18.9
2019-Aug-25 22:00 058 1 gusting 5 18.9
2019-Aug-25 21:55 049 0 gusting 4 18.9
2019-Aug-25 21:50 055 0 gusting 4 19.4
2019-Aug-25 21:45 061 1 gusting 4 19.4
2019-Aug-25 21:40 052 2 gusting 6 19.4
2019-Aug-25 21:35 074 3 gusting 6 19.4
2019-Aug-25 21:30 056 2 gusting 5 19.4
2019-Aug-25 21:25 046 1 gusting 5 19.4
2019-Aug-25 21:20 057 2 gusting 5 19.4
2019-Aug-25 21:15 043 0 gusting 4 19.4
2019-Aug-25 21:10 078 0 gusting 5 19.4
2019-Aug-25 21:05 061 2 gusting 5 19.4
2019-Aug-25 21:00 048 2 gusting 5 20.0
2019-Aug-25 20:55 052 1 gusting 4 20.0
2019-Aug-25 20:50 040 0 gusting 1 20.0
2019-Aug-25 20:45 022 0 gusting 2 20.0
2019-Aug-25 20:40 064 1 gusting 5 20.0
2019-Aug-25 20:35 054 2 gusting 6 20.0
2019-Aug-25 20:30 063 3 gusting 6 20.0
2019-Aug-25 20:25 068 1 gusting 6 20.0
2019-Aug-25 20:20 062 3 gusting 6 20.0
2019-Aug-25 20:15 070 2 gusting 6 20.0
2019-Aug-25 20:10 056 4 gusting 7 20.0
2019-Aug-25 20:05 047 4 gusting 6 20.0
2019-Aug-25 19:55 071 3 gusting 6 20.6
2019-Aug-25 19:50 070 4 gusting 7 20.6
2019-Aug-25 19:45 047 3 gusting 6 20.6
2019-Aug-25 19:40 049 4 gusting 6 20.6
2019-Aug-25 19:35 040 4 gusting 6 20.6
2019-Aug-25 19:30 040 4 gusting 6 21.1
2019-Aug-25 19:25 062 3 gusting 6 21.1
2019-Aug-25 19:20 060 3 gusting 7 21.1
2019-Aug-25 19:15 051 4 gusting 6 21.1
2019-Aug-25 19:10 060 4 gusting 6 21.1
2019-Aug-25 19:05 066 4 gusting 6 21.1
2019-Aug-25 19:00 053 4 gusting 7 21.7
2019-Aug-25 18:55 058 5 gusting 7 21.7
2019-Aug-25 18:50 064 5 gusting 7 21.7
2019-Aug-25 18:45 054 5 gusting 7 21.7
2019-Aug-25 18:40 066 5 gusting 8 21.7
2019-Aug-25 18:35 064 4 gusting 7 21.7
2019-Aug-25 18:30 053 4 gusting 7 21.7
2019-Aug-25 18:25 042 4 gusting 7 21.7
2019-Aug-25 18:20 052 4 gusting 7 21.7
2019-Aug-25 18:15 042 4 gusting 7 22.2
2019-Aug-25 18:10 043 5 gusting 7 22.2
2019-Aug-25 18:05 051 4 gusting 6 22.2
2019-Aug-25 18:00 053 2 gusting 6 22.8
2019-Aug-25 17:55 051 4 gusting 6 22.8
2019-Aug-25 17:50 045 5 gusting 7 22.8
2019-Aug-25 17:45 050 2 gusting 7 22.8
2019-Aug-25 17:40 062 2 gusting 6 23.3
2019-Aug-25 17:35 039 4 gusting 6 23.3
2019-Aug-25 17:30 053 4 gusting 8 23.3
2019-Aug-25 17:25 057 4 gusting 8 23.3
2019-Aug-25 17:15 056 3 gusting 6 23.3
2019-Aug-25 17:10 033 4 gusting 7 23.3
2019-Aug-25 17:05 050 4 gusting 7 23.3
2019-Aug-25 17:00 044 5 gusting 7 23.3
2019-Aug-25 16:55 044 5 gusting 7 23.9
2019-Aug-25 16:50 044 5 gusting 7 23.9
2019-Aug-25 16:45 040 5 gusting 7 23.9
2019-Aug-25 16:40 032 5 gusting 7 23.9
2019-Aug-25 16:35 049 4 gusting 7 23.9
2019-Aug-25 16:30 035 5 gusting 7 24.4
2019-Aug-25 16:25 064 6 gusting 10 24.4
2019-Aug-25 16:20 050 5 gusting 7 24.4
2019-Aug-25 16:15 047 6 gusting 8 25.0
2019-Aug-25 16:10 054 4 gusting 7 25.0
2019-Aug-25 16:05 038 5 gusting 7 25.0
2019-Aug-25 16:00 043 6 gusting 7 25.0
2019-Aug-25 15:55 030 4 gusting 7 25.6
2019-Aug-25 15:50 027 5 gusting 7 25.6
2019-Aug-25 15:45 027 4 gusting 8 25.6
2019-Aug-25 15:40 028 6 gusting 7 25.6
2019-Aug-25 15:35 025 4 gusting 6 26.1
2019-Aug-25 15:30 024 5 gusting 6 26.1
2019-Aug-25 15:25 014 5 gusting 8 26.1
2019-Aug-25 15:20 046 7 gusting 10 26.7
2019-Aug-25 15:15 019 6 gusting 7 26.7
2019-Aug-25 15:10 035 6 gusting 7 27.2
2019-Aug-25 15:05 028 3 gusting 6 27.2
2019-Aug-25 15:00 059 4 gusting 7 27.2
2019-Aug-25 14:55 029 5 gusting 7 27.2
2019-Aug-25 14:50 022 5 gusting 10 27.2
2019-Aug-25 14:45 031 6 gusting 10 27.2
2019-Aug-25 14:40 017 6 gusting 10 27.2
2019-Aug-25 14:35 021 5 gusting 7 27.2
2019-Aug-25 14:30 025 7 gusting 8 27.2
2019-Aug-25 14:25 050 6 gusting 11 27.2
2019-Aug-25 14:20 044 6 gusting 11 27.8
2019-Aug-25 14:15 018 5 gusting 12 27.8
2019-Aug-25 14:10 033 6 gusting 12 27.8
2019-Aug-25 14:05 051 7 gusting 12 27.8
2019-Aug-25 14:00 046 8 gusting 13 27.8
2019-Aug-25 13:55 053 8 gusting 12 27.8
2019-Aug-25 13:50 045 7 gusting 11 27.8
2019-Aug-25 13:45 026 6 gusting 13 27.8
2019-Aug-25 13:40 040 6 gusting 12 27.8
2019-Aug-25 13:35 049 7 gusting 12 27.8
2019-Aug-25 13:30 059 8 gusting 11 27.8
2019-Aug-25 13:25 028 6 gusting 10 27.8
2019-Aug-25 13:20 020 7 gusting 12 27.8
2019-Aug-25 13:15 063 7 gusting 10 28.3
2019-Aug-25 13:10 053 7 gusting 11 28.3
2019-Aug-25 13:05 080 4 gusting 10 28.3
2019-Aug-25 13:00 078 7 gusting 12 28.3
2019-Aug-25 12:55 052 7 gusting 12 27.8
2019-Aug-25 12:50 083 6 gusting 11 28.3
2019-Aug-25 12:45 068 6 gusting 10 28.3
2019-Aug-25 12:40 066 6 gusting 11 28.3
2019-Aug-25 12:35 026 6 gusting 11 28.3
2019-Aug-25 12:30 087 5 gusting 10 27.8
2019-Aug-25 12:25 022 5 gusting 8 27.8
2019-Aug-25 12:20 069 6 gusting 8 27.8
2019-Aug-25 12:15 022 6 gusting 11 27.8
2019-Aug-25 12:10 044 4 gusting 7 27.8
2019-Aug-25 12:05 033 5 gusting 8 27.8
2019-Aug-25 12:00 021 6 gusting 8 27.8
2019-Aug-25 11:55 070 3 gusting 7 28.3
2019-Aug-25 11:50 083 5 gusting 7 28.3
2019-Aug-25 11:45 066 4 gusting 7 28.3
2019-Aug-25 11:40 040 2 gusting 6 28.3
2019-Aug-25 11:35 072 3 gusting 7 28.3
2019-Aug-25 11:30 103 3 gusting 7 28.3
2019-Aug-25 11:25 176 4 gusting 7 27.8
2019-Aug-25 11:20 088 3 gusting 7 27.8
2019-Aug-25 11:15 089 3 gusting 6 27.8
2019-Aug-25 11:10 099 1 gusting 7 27.8
2019-Aug-25 11:05 050 2 gusting 6 27.2
2019-Aug-25 11:00 065 5 gusting 6 27.2
2019-Aug-25 10:55 123 1 gusting 6 26.7
2019-Aug-25 10:50 089 4 gusting 6 26.7
2019-Aug-25 10:45 075 1 gusting 7 26.7
2019-Aug-25 10:40 129 4 gusting 7 26.1
2019-Aug-25 10:35 056 2 gusting 6 26.1
2019-Aug-25 10:30 058 2 gusting 6 25.6
2019-Aug-25 10:25 068 5 gusting 7 25.6
2019-Aug-25 10:20 067 4 gusting 7 25.6
2019-Aug-25 10:15 049 2 gusting 6 25.0
2019-Aug-25 10:10 059 5 gusting 7 25.0
2019-Aug-25 10:05 057 4 gusting 7 25.0
2019-Aug-25 10:00 042 2 gusting 7 25.0
2019-Aug-25 09:55 072 4 gusting 6 25.0
2019-Aug-25 09:50 063 4 gusting 11 25.0
2019-Aug-25 09:45 063 2 gusting 7 24.4
2019-Aug-25 09:40 055 6 gusting 10 24.4
2019-Aug-25 09:35 035 6 gusting 8 24.4
2019-Aug-25 09:30 057 4 gusting 7 24.4
2019-Aug-25 09:25 055 2 gusting 7 23.9
2019-Aug-25 09:20 045 4 gusting 7 23.9
2019-Aug-25 09:15 089 5 gusting 7 23.9
2019-Aug-25 09:10 035 5 gusting 7 23.3
2019-Aug-25 09:05 071 1 gusting 7 23.3
2019-Aug-25 09:00 074 0 gusting 6 22.8
2019-Aug-25 08:55 045 2 gusting 6 23.3
2019-Aug-25 08:50 072 4 gusting 6 22.8
2019-Aug-25 08:45 044 4 gusting 7 22.8
2019-Aug-25 08:40 047 5 gusting 7 22.8
2019-Aug-25 08:35 042 2 gusting 6 22.2
2019-Aug-25 08:30 049 3 gusting 6 21.7
2019-Aug-25 08:25 028 4 gusting 6 21.7
2019-Aug-25 08:20 035 2 gusting 6 21.7
2019-Aug-25 08:15 042 2 gusting 6 21.1
2019-Aug-25 08:10 054 2 gusting 6 21.1
2019-Aug-25 08:05 039 2 gusting 5 21.1
2019-Aug-25 08:00 033 2 gusting 6 20.6
2019-Aug-25 07:55 044 2 gusting 6 20.6
2019-Aug-25 07:50 056 2 gusting 6 20.6
2019-Aug-25 07:45 069 2 gusting 5 20.0
2019-Aug-25 07:40 027 2 gusting 5 20.0
2019-Aug-25 07:35 031 1 gusting 6 19.4
2019-Aug-25 07:30 057 2 gusting 6 19.4
2019-Aug-25 07:25 083 4 gusting 6 18.9
2019-Aug-25 07:20 072 1 gusting 5 18.9
2019-Aug-25 07:15 080 1 gusting 5 18.9
2019-Aug-25 07:10 089 0 gusting 4 18.3
2019-Aug-25 07:05 077 3 gusting 6 18.3
2019-Aug-25 07:00 066 3 gusting 6 18.3
2019-Aug-25 06:55 091 3 gusting 6 17.8
2019-Aug-25 06:50 079 4 gusting 6 17.8
2019-Aug-25 06:45 066 0 gusting 6 17.8
2019-Aug-25 06:40 074 2 gusting 6 17.2
2019-Aug-25 06:35 078 1 gusting 5 17.2
2019-Aug-25 06:30 099 2 gusting 6 17.2
2019-Aug-25 06:25 056 0 gusting 5 17.2
2019-Aug-25 06:20 081 0 gusting 5 16.7
2019-Aug-25 06:15 076 0 gusting 5 16.7
2019-Aug-25 06:10 102 2 gusting 5 16.7
2019-Aug-25 06:05 081 2 gusting 5 16.7
2019-Aug-25 06:00 076 1 gusting 6 16.1
2019-Aug-25 05:55 093 0 gusting 5 16.1
2019-Aug-25 05:50 067 0 gusting 4 16.1
2019-Aug-25 05:45 069 0 gusting 5 16.1
2019-Aug-25 05:40 075 2 gusting 5 16.1
2019-Aug-25 05:35 085 1 gusting 5 15.6
2019-Aug-25 05:30 074 2 gusting 6 15.6
2019-Aug-25 05:25 081 1 gusting 6 15.6
2019-Aug-25 05:20 080 2 gusting 5 15.6
2019-Aug-25 05:15 058 1 gusting 4 15.6
2019-Aug-25 05:10 065 2 gusting 5 15.0
2019-Aug-25 05:05 069 2 gusting 6 15.0
2019-Aug-25 05:00 076 0 gusting 4 15.0
2019-Aug-25 04:55 076 2 gusting 5 15.0
2019-Aug-25 04:50 082 0 gusting 4 15.0
2019-Aug-25 04:45 063 1 gusting 4 15.0
2019-Aug-25 04:40 072 1 gusting 5 15.0
2019-Aug-25 04:35 072 14.4
2019-Aug-25 04:30 065 0 gusting 2 14.4
2019-Aug-25 04:25 065 0 gusting 4 14.4
2019-Aug-25 04:20 062 0 gusting 1 14.4
2019-Aug-25 04:15 061 0 gusting 4 15.0
2019-Aug-25 04:10 075 14.4
2019-Aug-25 04:05 070 2 gusting 5 15.0
2019-Aug-25 04:00 079 14.4
2019-Aug-25 03:55 073 1 gusting 4 15.0
2019-Aug-25 03:50 078 0 gusting 4 15.0
2019-Aug-25 03:45 080 1 gusting 5 15.0
2019-Aug-25 03:40 078 0 gusting 4 15.0
2019-Aug-25 03:35 077 1 gusting 4 15.0
2019-Aug-25 03:30 068 1 gusting 5 15.0
2019-Aug-25 03:25 063 1 gusting 5 15.0
2019-Aug-25 03:20 077 0 gusting 5 15.0
2019-Aug-25 03:15 082 0 gusting 5 15.0
2019-Aug-25 03:10 077 15.0
2019-Aug-25 03:05 074 0 gusting 2 15.0
2019-Aug-25 03:00 073 0 gusting 4 15.0
2019-Aug-25 02:55 070 1 gusting 5 15.0
2019-Aug-25 02:50 087 1 gusting 5 15.0
2019-Aug-25 02:45 063 2 gusting 5 15.0
2019-Aug-25 02:40 071 0 gusting 6 15.0
2019-Aug-25 02:35 067 1 gusting 5 15.0
2019-Aug-25 02:30 084 1 gusting 5 15.0
2019-Aug-25 02:25 083 1 gusting 6 15.0
2019-Aug-25 02:20 074 2 gusting 5 15.0
2019-Aug-25 02:15 077 0 gusting 4 15.0
2019-Aug-25 02:10 086 0 gusting 4 15.0
2019-Aug-25 02:05 079 0 gusting 1 15.0
2019-Aug-25 02:00 075 0 gusting 4 15.6
2019-Aug-25 01:55 065 0 gusting 2 15.6
2019-Aug-25 01:50 065 1 gusting 5 15.6
2019-Aug-25 01:45 065 1 gusting 4 15.6
2019-Aug-25 01:40 062 0 gusting 2 15.6
2019-Aug-25 01:35 063 0 gusting 4 15.6
2019-Aug-25 01:30 062 0 gusting 4 15.6
2019-Aug-25 01:25 062 2 gusting 4 15.6
2019-Aug-25 01:20 067 15.6
2019-Aug-25 01:15 067 15.6
2019-Aug-25 01:10 067 0 gusting 4 15.6
2019-Aug-25 01:05 067 15.6
2019-Aug-25 01:00 068 1 gusting 4 15.6
2019-Aug-25 00:55 070 1 gusting 4 16.1
2019-Aug-25 00:50 072 0 gusting 4 16.1
2019-Aug-25 00:45 073 1 gusting 5 16.1
2019-Aug-25 00:40 061 0 gusting 5 16.1
2019-Aug-25 00:35 056 1 gusting 5 16.1
2019-Aug-25 00:30 076 1 gusting 5 16.1
2019-Aug-25 00:25 086 1 gusting 4 16.1
2019-Aug-25 00:20 082 0 gusting 4 16.1
2019-Aug-25 00:15 071 1 gusting 4 16.1
2019-Aug-25 00:10 057 1 gusting 5 16.1
2019-Aug-25 00:05 077 2 gusting 6 16.1
2019-Aug-25 00:00 071 2 gusting 5 16.1
2019-Aug-24 23:55 049 1 gusting 6 16.1
2019-Aug-24 23:50 075 2 gusting 5 16.1
2019-Aug-24 23:45 061 1 gusting 5 16.1
2019-Aug-24 23:40 072 1 gusting 5 16.7
2019-Aug-24 23:35 059 0 gusting 5 16.7
2019-Aug-24 23:30 065 0 gusting 4 16.7
2019-Aug-24 23:25 062 16.7
2019-Aug-24 23:20 067 1 gusting 4 16.7
2019-Aug-24 23:15 087 1 gusting 4 16.7
2019-Aug-24 23:10 062 0 gusting 5 16.7
2019-Aug-24 23:05 070 0 gusting 2 16.7
2019-Aug-24 23:00 071 0 gusting 4 16.7
2019-Aug-24 22:55 078 1 gusting 5 16.7
2019-Aug-24 22:50 053 2 gusting 6 17.2
2019-Aug-24 22:45 057 1 gusting 5 17.2
2019-Aug-24 22:40 061 2 gusting 5 17.2
2019-Aug-24 22:35 067 1 gusting 4 17.2
2019-Aug-24 22:30 065 2 gusting 5 17.2
2019-Aug-24 22:25 080 1 gusting 5 17.8
2019-Aug-24 22:20 072 1 gusting 4 17.8
2019-Aug-24 22:15 082 2 gusting 6 17.8
2019-Aug-24 22:10 059 3 gusting 6 17.8
2019-Aug-24 22:05 072 4 gusting 6 17.8
2019-Aug-24 22:00 079 1 gusting 5 17.8
2019-Aug-24 21:55 059 3 gusting 6 17.8
2019-Aug-24 21:50 063 2 gusting 6 18.3
2019-Aug-24 21:45 057 5 gusting 7 18.3
2019-Aug-24 21:40 065 4 gusting 6 18.3
2019-Aug-24 21:35 085 4 gusting 7 18.3
2019-Aug-24 21:30 067 5 gusting 7 18.3
2019-Aug-24 21:25 074 3 gusting 7 18.3
2019-Aug-24 21:20 063 5 gusting 7 18.3
2019-Aug-24 21:15 072 4 gusting 7 18.3
2019-Aug-24 21:10 070 3 gusting 6 18.3
2019-Aug-24 21:05 076 4 gusting 8 18.9
2019-Aug-24 21:00 068 4 gusting 7 18.9
2019-Aug-24 20:55 072 5 gusting 7 18.9
2019-Aug-24 20:50 074 5 gusting 7 18.9
2019-Aug-24 20:45 069 4 gusting 6 18.9
2019-Aug-24 20:40 065 4 gusting 7 18.9
2019-Aug-24 20:35 056 5 gusting 7 18.9
2019-Aug-24 20:30 065 4 gusting 6 18.9
2019-Aug-24 20:25 058 4 gusting 7 18.9
2019-Aug-24 20:20 074 4 gusting 6 18.9
2019-Aug-24 20:15 062 4 gusting 6 18.9
2019-Aug-24 20:10 067 3 gusting 6 18.9
2019-Aug-24 20:05 068 4 gusting 6 18.9
2019-Aug-24 20:00 071 2 gusting 6 18.9
2019-Aug-24 19:55 081 4 gusting 6 18.9
2019-Aug-24 19:50 067 2 gusting 7 18.9
2019-Aug-24 19:45 054 3 gusting 6 18.9
2019-Aug-24 19:40 060 2 gusting 6 18.9
2019-Aug-24 19:35 069 3 gusting 6 19.4
2019-Aug-24 19:30 061 3 gusting 6 19.4
2019-Aug-24 19:25 067 3 gusting 6 19.4
2019-Aug-24 19:20 066 4 gusting 6 19.4
2019-Aug-24 19:15 056 2 gusting 6 19.4
2019-Aug-24 19:10 052 3 gusting 6 19.4
2019-Aug-24 19:05 056 4 gusting 6 19.4
2019-Aug-24 19:00 052 2 gusting 5 20.0
2019-Aug-24 18:55 062 3 gusting 6 20.0
2019-Aug-24 18:50 068 3 gusting 6 20.0
2019-Aug-24 18:45 067 2 gusting 6 20.0
2019-Aug-24 18:40 056 1 gusting 6 20.0
2019-Aug-24 18:35 062 2 gusting 6 20.6
2019-Aug-24 18:30 064 3 gusting 6 20.6
2019-Aug-24 18:25 049 4 gusting 6 20.6
2019-Aug-24 18:20 048 3 gusting 6 21.1
2019-Aug-24 18:15 071 2 gusting 7 21.1
2019-Aug-24 18:10 042 4 gusting 7 21.1
2019-Aug-24 18:05 052 4 gusting 6 21.7
2019-Aug-24 18:00 058 4 gusting 7 21.7
2019-Aug-24 17:55 047 5 gusting 10 21.7
2019-Aug-24 17:50 050 4 gusting 7 22.2
2019-Aug-24 17:45 058 5 gusting 11 22.2
2019-Aug-24 17:40 055 4 gusting 8 22.2
2019-Aug-24 17:35 052 4 gusting 7 22.2
2019-Aug-24 17:30 054 6 gusting 8 22.8
2019-Aug-24 17:25 048 5 gusting 7 22.8
2019-Aug-24 17:20 044 6 gusting 8 22.8
2019-Aug-24 17:15 059 6 gusting 13 22.8
2019-Aug-24 17:10 049 6 gusting 11 22.8
2019-Aug-24 17:05 061 7 gusting 11 23.3
2019-Aug-24 17:00 068 7 gusting 11 23.3
2019-Aug-24 16:55 057 5 gusting 7 23.3
2019-Aug-24 16:50 052 7 gusting 12 23.3
2019-Aug-24 16:45 064 8 gusting 12 23.9
2019-Aug-24 16:40 062 7 gusting 12 23.9
2019-Aug-24 16:35 064 6 gusting 13 23.9
2019-Aug-24 16:30 055 8 gusting 14 24.4
2019-Aug-24 16:25 057 7 gusting 8 24.4
2019-Aug-24 16:20 053 7 gusting 10 25.0
2019-Aug-24 16:15 054 5 gusting 11 25.0
2019-Aug-24 16:10 062 7 gusting 12 25.0
2019-Aug-24 16:05 069 5 gusting 10 25.0
2019-Aug-24 16:00 063 7 gusting 13 25.0
2019-Aug-24 15:55 054 7 gusting 13 25.6
2019-Aug-24 15:50 035 6 gusting 8 25.6
2019-Aug-24 15:45 078 4 gusting 7 25.6
2019-Aug-24 15:40 053 5 gusting 11 25.6
2019-Aug-24 15:35 056 6 gusting 12 25.6
2019-Aug-24 15:30 048 7 gusting 12 26.1
2019-Aug-24 15:25 059 5 gusting 11 26.1
2019-Aug-24 15:20 075 6 gusting 12 26.1
2019-Aug-24 15:15 051 5 gusting 12 26.1
2019-Aug-24 15:10 052 6 gusting 13 26.1
2019-Aug-24 15:05 047 7 gusting 13 26.1
2019-Aug-24 15:00 033 8 gusting 12 26.1
2019-Aug-24 14:55 049 6 gusting 13 26.1
2019-Aug-24 14:50 060 7 gusting 13 26.7
2019-Aug-24 14:45 047 6 gusting 11 26.7
2019-Aug-24 14:40 063 7 gusting 13 26.1
2019-Aug-24 14:35 060 9 gusting 12 26.7
2019-Aug-24 14:30 048 7 gusting 14 26.7
2019-Aug-24 14:25 058 7 gusting 12 26.7
2019-Aug-24 14:20 082 8 gusting 12 26.7
2019-Aug-24 14:15 062 8 gusting 12 26.7
2019-Aug-24 14:10 032 7 gusting 14 26.7
2019-Aug-24 14:05 063 6 gusting 12 26.7
2019-Aug-24 14:00 052 7 gusting 12 26.7
2019-Aug-24 13:55 065 7 gusting 12 26.7
2019-Aug-24 13:50 043 8 gusting 12 26.7
2019-Aug-24 13:45 047 5 gusting 12 26.7
2019-Aug-24 13:40 035 8 gusting 13 26.7
2019-Aug-24 13:35 057 8 gusting 13 26.7
2019-Aug-24 13:30 053 6 gusting 12 26.7
2019-Aug-24 13:25 031 7 gusting 11 26.7
2019-Aug-24 13:20 044 8 gusting 12 27.2
2019-Aug-24 13:15 055 6 gusting 8 26.7
2019-Aug-24 13:10 078 5 gusting 10 26.7
2019-Aug-24 13:05 051 7 gusting 11 26.7
2019-Aug-24 13:00 064 7 gusting 11 26.7
2019-Aug-24 12:55 048 8 gusting 13 26.7
2019-Aug-24 12:50 074 4 gusting 13 26.7
2019-Aug-24 12:45 060 6 gusting 10 26.7
2019-Aug-24 12:40 044 8 gusting 11 26.7
2019-Aug-24 12:35 064 6 gusting 11 26.7
2019-Aug-24 12:30 071 4 gusting 7 26.7
2019-Aug-24 12:25 082 6 gusting 10 26.7
2019-Aug-24 12:20 029 1 gusting 8 26.7
2019-Aug-24 12:15 066 6 gusting 8 26.7
2019-Aug-24 12:10 074 6 gusting 8 26.7
2019-Aug-24 12:05 068 4 gusting 7 26.7
2019-Aug-24 12:00 065 7 gusting 13 26.7
2019-Aug-24 11:55 077 4 gusting 8 26.7
2019-Aug-24 11:50 064 5 gusting 7 26.7
2019-Aug-24 11:45 084 5 gusting 10 26.1
2019-Aug-24 11:40 039 6 gusting 12 26.1
2019-Aug-24 11:35 080 6 gusting 10 26.1
2019-Aug-24 11:30 084 6 gusting 10 26.1
2019-Aug-24 11:25 096 6 gusting 10 26.1
2019-Aug-24 11:20 087 2 gusting 6 26.1
2019-Aug-24 11:15 045 3 gusting 7 25.6
2019-Aug-24 11:10 083 5 gusting 8 25.6
2019-Aug-24 11:05 075 4 gusting 8 25.6
2019-Aug-24 11:00 122 1 gusting 7 25.6
2019-Aug-24 10:55 102 4 gusting 7 25.0
2019-Aug-24 10:50 067 6 gusting 7 25.0
2019-Aug-24 10:45 077 5 gusting 7 25.0
2019-Aug-24 10:40 121 2 gusting 7 24.4
2019-Aug-24 10:35 053 6 gusting 10 25.0
2019-Aug-24 10:30 080 4 gusting 6 24.4
2019-Aug-24 10:25 096 5 gusting 8 24.4
2019-Aug-24 10:20 072 6 gusting 8 24.4
2019-Aug-24 10:15 084 4 gusting 7 23.9
2019-Aug-24 10:10 072 5 gusting 8 23.9
2019-Aug-24 10:05 126 2 gusting 6 23.9
2019-Aug-24 10:00 099 2 gusting 6 23.3
2019-Aug-24 09:55 092 3 gusting 8 23.3
2019-Aug-24 09:50 082 4 gusting 8 23.3
2019-Aug-24 09:45 055 5 gusting 10 23.3
2019-Aug-24 09:40 072 3 gusting 6 22.8
2019-Aug-24 09:35 075 5 gusting 8 22.8
2019-Aug-24 09:30 089 4 gusting 7 22.8
2019-Aug-24 09:25 130 2 gusting 6 22.2
2019-Aug-24 09:20 087 4 gusting 8 22.2
2019-Aug-24 09:15 088 5 gusting 7 22.2
2019-Aug-24 09:10 092 6 gusting 8 21.7
2019-Aug-24 09:05 068 4 gusting 7 21.7
2019-Aug-24 09:00 071 4 gusting 6 21.7